Home   Weather   Campeche   Past weeks

Flag for Mexico Past Weather in Campeche, Campeche, Mexico — Yesterday and Last 2 Weeks

Now
72 °F

Clear.


Feels Like: 69 °F
Forecast: 74 / 90 °F
Wind: 10 mph from Southeast

Location: Aerop. Internacional Merida - Yuc

Current Time: Jan 21, 2017 at 5:17:40 am

Latest Report: Jan 21, 2017 at 3:48 am


Visibility: 7 mi

Pressure: 29.83 "Hg

Humidity: 88%

Dew Point: 68 °F

Location of CampecheLocation

Past Weather in Campeche — Graph

°F

Campeche Temperature Yesterday

Maximum temperature yesterday: 93 °F (at 1:47 pm)
Minimum temperature yesterday: 68 °F (at 4:48 am)
Average temperature yesterday: 80 °F

High & Low Weather Summary for the Past Weeks

 TemperatureHumidityPressure
High93 °F (Jan 20, 1:47 pm)94% (Jan 6, 3:47 am)30.45 "Hg (Jan 6, 3:47 am)
Low61 °F (Jan 11, 5:49 am)31% (Jan 11, 2:45 pm)29.76 "Hg (Jan 20, 3:45 pm)
Average75 °F69%30.09 "Hg
* Reported Jan 6 3:47 am — Jan 21 3:48 am, Campeche, Weather by CustomWeather, © 2017

Note: Actual official high and low records may vary slightly from our data, if they occured in-between our weather recording intervals... More about our weather records

Advertising

Campeche Weather History for the Previous 24 Hours

Scroll right to see more
 ConditionsComfort  
Time TempWeatherWind HumidityBarometerVisibility
3:48 am
Sat, Jan 21
72 °FClear.10 mph88%29.83 "Hg7 mi
2:49 am73 °FClear.9 mph89%29.86 "Hg7 mi
1:48 am73 °FClear.9 mph83%29.85 "Hg7 mi
12:48 am75 °FClear.15 mph78%29.85 "Hg7 mi
11:48 pm
Fri, Jan 20
75 °FClear.9 mph78%29.87 "Hg7 mi
10:48 pm77 °FClear.14 mph69%29.87 "Hg7 mi
9:48 pm79 °FClear.10 mph65%29.86 "Hg7 mi
8:50 pm81 °FClear.14 mph62%29.86 "Hg7 mi
7:51 pm82 °FClear.14 mph55%29.82 "Hg7 mi
6:50 pm81 °FClear.7 mph48%29.79 "Hg7 mi
5:59 pm84 °FClear.6 mph45%29.80 "Hg7 mi
4:46 pm91 °FSunny.6 mph32%29.76 "Hg7 mi
3:45 pm93 °FPassing clouds.3 mph32%29.76 "Hg7 mi
2:45 pm93 °FPassing clouds.5 mph34%29.76 "Hg7 mi
1:47 pm93 °FPassing clouds.9 mph39%29.79 "Hg7 mi
12:45 pm91 °FScattered clouds.12 mph44%29.84 "Hg7 mi
11:50 am90 °FScattered clouds.9 mph46%29.88 "Hg7 mi
10:49 am86 °FScattered clouds.12 mph55%29.90 "Hg7 mi
9:45 am81 °FScattered clouds.14 mph66%29.92 "Hg7 mi
8:45 am77 °FScattered clouds.15 mph79%29.91 "Hg7 mi
7:47 am72 °FScattered clouds.8 mph88%29.89 "Hg7 mi
6:44 am68 °FScattered clouds.8 mph94%29.87 "Hg6 mi
5:48 am68 °FClear.8 mph94%29.86 "Hg7 mi
Weather by CustomWeather, © 2017

See weather overviewHow to use our weather pages